Weather History for KTYQ - November, 2012

Change the Weather History Date:

Wednesday, November 21, 2012

  Actual Average (KEYE) Record (KEYE)
Temperature  
Mean Temperature 46 °F 42 °F  
Max Temperature 59 °F 49 °F - ()
Min Temperature 33 °F 34 °F - ()
Degree Days  
Heating Degree Days 19 23  
Month to date heating degree days 400  
Since 1 July heating degree days 792  
Cooling Degree Days 0 0  
Month to date cooling degree days 0  
Year to date cooling degree days 1058  
Moisture  
Dew Point 39 °F    
Average Humidity 80    
Maximum Humidity 93    
Minimum Humidity 54    
Precipitation  
Precipitation 0.00 in 0.13 in - ()
Month to date precipitation 2.61  
Year to date precipitation 36.62  
Sea Level Pressure  
Sea Level Pressure 30.21 in    
Wind  
Wind Speed 2 mph (NW)    
Max Wind Speed 6 mph    
Max Gust Speed -    
Visibility 4 miles    
Events Fog    
T = Trace of Precipitation, MM = Missing Value Source: NWS Daily Summary

Daily Weather History Graph

Daily Weather History Graph

Search for Another Location

Airport or City:

Trip Planner

Search our weather history database for the weather conditions in past years. The results will help you decide how hot, cold, wet, or windy it might be!

Date:

Astronomy

Nov. 21, 2012 Rise Set
Actual Time 7:37 AM EST 5:24 PM EST
Civil Twilight 7:08 AM EST 5:53 PM EST
Nautical Twilight 6:35 AM EST 6:26 PM EST
Astronomical Twilight 6:02 AM EST 6:59 PM EST
Moon 1:40 PM EST (11/21) 12:56 AM EST (11/21)
Length of Visible Light 10h 45m
Length of Day
9h 46m
First Quarter, 61% of the Moon is Illuminated
Nov 21
First Quarter
Nov 28
Full
Dec 6
Last Quarter
Dec 13
New
Dec 20
First Quarter

Hourly Weather History & Observations

Time (EST) Temp. Windchill Dew Point Humidity Pressure Visibility Wind Dir Wind Speed Gust Speed Precip Events Conditions
12:15 AM 46.8 °F - 41.7 °F 83% 30.16 in 7.0 mi Calm Calm - N/A   Overcast
12:35 AM 47.7 °F - 41.9 °F 80% 30.16 in 7.0 mi NW 4.6 mph - N/A   Overcast
12:55 AM 47.3 °F - 41.7 °F 81% 30.16 in 7.0 mi NW 4.6 mph - N/A   Overcast
1:15 AM 46.9 °F - 41.4 °F 81% 30.16 in 7.0 mi NW 3.5 mph - N/A   Overcast
1:35 AM 46.0 °F 43.9 °F 40.5 °F 81% 30.16 in 7.0 mi WNW 4.6 mph - N/A   Overcast
1:55 AM 46.4 °F 43.5 °F 41.0 °F 81% 30.16 in 7.0 mi NW 5.8 mph - N/A   Overcast
2:15 AM 45.0 °F 42.6 °F 39.9 °F 82% 30.16 in 5.0 mi NNW 4.6 mph - N/A   Haze
2:35 AM 43.2 °F 40.5 °F 38.7 °F 84% 30.16 in 5.0 mi North 4.6 mph - N/A   Clear
2:55 AM 43.0 °F 40.3 °F 39.0 °F 86% 30.17 in 4.0 mi North 4.6 mph - N/A   Clear
3:15 AM 41.7 °F 39.8 °F 38.1 °F 87% 30.17 in 2.5 mi North 3.5 mph - N/A   Clear
3:35 AM 39.7 °F 36.5 °F 36.3 °F 88% 30.18 in 1.5 mi NNW 4.6 mph - N/A   Mist
3:55 AM 39.7 °F 37.6 °F 36.5 °F 88% 30.18 in 1.0 mi NNW 3.5 mph - N/A   Mist
4:15 AM 39.9 °F - 36.7 °F 88% 30.19 in 0.5 mi Calm Calm - N/A Fog Fog
4:35 AM 37.8 °F - 34.7 °F 89% 30.19 in 0.2 mi Calm Calm - N/A Fog Fog
4:55 AM 35.4 °F 32.6 °F 32.7 °F 90% 30.19 in 0.2 mi NW 3.5 mph - N/A Fog Fog
5:15 AM 36.7 °F - 34.0 °F 90% 30.19 in 0.2 mi Calm Calm - N/A Fog Fog
5:35 AM 37.4 °F - 34.7 °F 90% 30.20 in 0.2 mi Calm Calm - N/A Fog Fog
5:55 AM 36.7 °F 32.9 °F 34.0 °F 90% 30.21 in 0.2 mi NNW 4.6 mph - N/A Fog Fog
6:15 AM 36.5 °F 33.9 °F 33.8 °F 90% 30.21 in 0.2 mi NNW 3.5 mph - N/A Fog Fog
6:35 AM 35.6 °F - 32.9 °F 90% 30.21 in 0.2 mi Calm Calm - N/A Fog Fog
6:55 AM 34.9 °F - 32.2 °F 90% 30.22 in 0.2 mi Calm Calm - N/A Fog Fog
7:15 AM 34.0 °F - 32.0 °F 92% 30.22 in 0.2 mi Calm Calm - N/A Fog Fog
7:35 AM 34.2 °F - 32.0 °F 92% 30.23 in 0.2 mi Calm Calm - N/A Fog Fog
7:55 AM 33.3 °F - 31.1 °F 92% 30.22 in 0.2 mi Calm Calm - N/A Fog Fog
8:15 AM 33.1 °F - 31.1 °F 92% 30.23 in 0.2 mi Calm Calm - N/A Fog Fog
8:35 AM 33.8 °F - 32.0 °F 93% 30.23 in 0.2 mi Calm Calm - N/A Fog Fog
8:55 AM 35.8 °F - 33.3 °F 91% 30.24 in 1.0 mi Calm Calm - N/A   Mist
9:15 AM 38.5 °F - 36.0 °F 91% 30.24 in 2.0 mi Calm Calm - N/A   Clear
9:35 AM 40.6 °F - 38.1 °F 91% 30.24 in 2.5 mi Calm Calm - N/A   Clear
9:55 AM 43.0 °F - 40.3 °F 90% 30.26 in 3.0 mi Calm Calm - N/A   Clear
10:15 AM 45.1 °F - 42.8 °F 91% 30.27 in 4.0 mi Calm Calm - N/A   Clear
10:35 AM 46.4 °F - 43.7 °F 90% 30.27 in 5.0 mi Calm Calm - N/A   Clear
10:55 AM 48.2 °F - 45.3 °F 90% 30.27 in 5.0 mi Calm Calm - N/A   Clear
11:15 AM 50.0 °F - 44.2 °F 81% 30.26 in 7.0 mi Calm Calm - N/A   Clear
11:55 AM 53.8 °F - 43.0 °F 67% 30.26 in 5.0 mi Calm Calm - N/A   Haze
12:15 PM 55.0 °F - 43.7 °F 66% 30.25 in 7.0 mi Calm Calm - N/A   Clear
12:35 PM 55.4 °F - 44.1 °F 66% 30.25 in 7.0 mi WNW 3.5 mph - N/A   Clear
12:55 PM 56.1 °F - 43.7 °F 63% 30.24 in 7.0 mi Calm Calm - N/A   Clear
1:15 PM 57.2 °F - 44.1 °F 62% 30.23 in 7.0 mi Calm Calm - N/A   Clear
1:35 PM 57.7 °F - 43.5 °F 59% 30.23 in 7.0 mi Calm Calm - N/A   Clear
1:55 PM 58.6 °F - 43.7 °F 58% 30.23 in 7.0 mi Calm Calm - N/A   Clear
2:15 PM 58.6 °F - 43.3 °F 57% 30.22 in 7.0 mi Calm Calm - N/A   Clear
2:35 PM 59.0 °F - 43.3 °F 56% 30.22 in 10.0 mi West 4.6 mph - N/A   Clear
2:55 PM 59.2 °F - 43.0 °F 55% 30.22 in 10.0 mi Calm Calm - N/A   Clear
3:15 PM 59.2 °F - 42.6 °F 54% 30.21 in 10.0 mi Calm Calm - N/A   Clear
3:35 PM 59.4 °F - 43.0 °F 55% 30.21 in 10.0 mi WNW 3.5 mph - N/A   Clear
3:55 PM 59.0 °F - 42.6 °F 55% 30.21 in 10.0 mi Calm Calm - N/A   Clear
4:15 PM 59.0 °F - 43.7 °F 57% 30.21 in 7.0 mi Calm Calm - N/A   Clear
4:35 PM 58.1 °F - 43.9 °F 59% 30.21 in 7.0 mi Calm Calm - N/A   Clear
4:55 PM 56.8 °F - 43.9 °F 62% 30.19 in 7.0 mi Calm Calm - N/A   Clear
5:15 PM 55.2 °F - 42.8 °F 63% 30.20 in 7.0 mi SSW 3.5 mph - N/A   Clear
5:35 PM 52.7 °F - 41.9 °F 67% 30.19 in 7.0 mi Calm Calm - N/A   Clear
5:55 PM 49.3 °F - 42.3 °F 77% 30.19 in 10.0 mi Calm Calm - N/A   Clear
6:15 PM 48.6 °F - 41.7 °F 77% 30.19 in 7.0 mi Calm Calm - N/A   Clear
6:35 PM 46.2 °F - 40.5 °F 80% 30.19 in 7.0 mi Calm Calm - N/A   Clear
6:55 PM 45.5 °F - 40.1 °F 81% 30.20 in 7.0 mi Calm Calm - N/A   Clear
7:15 PM 45.7 °F - 39.9 °F 80% 30.21 in 7.0 mi Calm Calm - N/A   Clear
7:35 PM 43.7 °F - 38.8 °F 83% 30.20 in 7.0 mi Calm Calm - N/A   Clear
7:55 PM 43.5 °F - 39.6 °F 86% 30.20 in 5.0 mi Calm Calm - N/A   Clear
8:15 PM 42.1 °F - 37.9 °F 85% 30.20 in 7.0 mi Calm Calm - N/A   Clear
8:35 PM 41.5 °F - 37.9 °F 87% 30.19 in 4.0 mi Calm Calm - N/A   Clear
8:55 PM 40.5 °F - 37.0 °F 88% 30.19 in 3.0 mi Calm Calm - N/A   Clear
9:15 PM 39.6 °F - 36.3 °F 88% 30.19 in 4.0 mi Calm Calm - N/A   Clear
9:35 PM 38.8 °F - 35.6 °F 88% 30.20 in 0.5 mi Calm Calm - N/A Fog Fog
9:55 PM 37.6 °F - 34.3 °F 88% 30.21 in 0.2 mi Calm Calm - N/A Fog Fog
10:15 PM 36.9 °F 34.3 °F 33.8 °F 89% 30.20 in 0.5 mi South 3.5 mph - N/A Fog Fog
10:35 PM 36.0 °F - 33.1 °F 89% 30.19 in 0.5 mi Calm Calm - N/A Fog Fog
10:55 PM 36.5 °F - 33.4 °F 89% 30.20 in 0.2 mi Calm Calm - N/A Fog Fog
11:15 PM 36.9 °F - 34.0 °F 89% 30.19 in 0.5 mi Calm Calm - N/A Fog Fog
11:35 PM 37.2 °F - 34.5 °F 90% 30.19 in 1.0 mi Calm Calm - N/A   Mist
11:55 PM 34.9 °F - 32.2 °F 90% 30.19 in 0.5 mi Calm Calm - N/A Fog Fog